CAPE
0 0 0 0 0 0 0 0 0 0 0 0 0 0 0 0 0 0 0 0 0 0 0 0 2 9 0 0 0 0 0 0 0 0 2 0 0 0 1 1 0 0 0 1
0 0 0 0 0 0 0 0 0 0 0 0 0 0 0 0 0 0 0 0 0 0 0 0 0 0 2 0 0 0 0 0 0 0 0 5 3 0 0 0 9 200 4 31
1 0 0 0 0 0 0 0 0 0 0 0 0 0 0 0 0 0 0 0 0 0 0 0 0 0 0 0 0 19 0 0 0 0 2 10 24 7 14 8 5 7 28 54
1 0 0 0 0 0 0 0 0 0 0 0 0 0 0 0 0 4 0 0 0 0 0 0 0 0 0 9 2 0 0 0 0 0 0 0 0 3 22 39 20 13 19 24
0 0 0 0 0 0 0 0 0 0 0 0 0 0 0 0 0 0 0 3 0 0 0 0 0 1 11 12 22 0 0 0 0 0 0 0 0 0 8 25 20 20 21 1
0 0 0 0 0 0 0 0 0 0 0 0 0 0 0 0 0 0 0 0 0 0 1 0 0 0 0 0 0 15 25 13 8 0 2 2 0 0 1 12 23 38 32 39
0 0 0 0 0 0 0 0 0 0 0 0 0 0 0 0 0 0 0 0 0 0 0 0 0 0 0 0 0 0 6 169 100 42 79 54 0 24 28 15 29 19 22 39
0 0 0 0 0 0 0 0 0 0 0 0 0 0 0 0 0 0 0 0 0 0 0 0 0 0 0 0 0 0 0 24 26 35 32 0 0 2 29 58 5 30 53 33
0 0 0 0 0 0 0 0 0 0 0 0 0 0 0 0 0 0 0 0 0 0 0 0 0 0 0 0 0 0 0 14 88 19 19 5 14 14 4 11 0 8 140 86
0 0 0 0 0 0 0 0 0 0 0 0 0 0 0 0 0 0 0 0 1 0 0 0 0 0 2 6 13 45 39 123 61 75 107 4 15 21 29 6 2 299 385 657
0 0 0 0 0 0 0 0 0 0 0 0 0 0 0 0 0 0 0 0 8 0 0 2 4 5 9 27 33 41 102 98 98 238 103 30 112 104 157 380 236 113 366 380
0 0 0 0 0 0 0 0 0 0 0 0 0 0 0 0 0 0 0 0 0 13 24 41 18 58 42 107 44 72 60 115 75 128 124 202 38 55 98 222 166 119 252 338
0 0 0 0 0 0 0 0 0 1 0 0 0 0 0 0 0 0 0 0 0 0 11 0 0 12 5 17 34 58 43 72 61 139 120 143 131 160 81 165 244 61 350 218
0 0 0 0 1 0 0 3 1 2 0 0 3 0 0 0 0 0 0 0 0 0 0 0 7 3 0 14 35 26 20 83 48 59 82 173 149 121 137 97 124 104 7 84
0 0 0 2 3 1 0 1 7 12 3 0 0 0 0 0 0 0 0 0 0 0 1 15 19 27 40 36 40 23 18 42 35 38 268 346 63 156 124 234 251 173 76 197
0 0 2 1 0 0 1 6 17 5 12 5 0 0 0 0 2 4 0 0 7 23 33 33 39 45 36 21 24 6 19 38 115 67 28 45 66 11 10 127 106 118 46 66
0 1 0 0 0 0 7 8 0 0 15 14 4 0 16 0 9 17 24 33 23 37 38 32 32 26 43 26 7 1 20 49 191 66 73 189 48 73 51 23 35 12 9 13
0 0 0 0 0 0 9 3 0 0 10 16 8 9 31 55 54 66 43 37 53 42 19 24 49 35 52 26 36 118 126 228 78 107 184 153 79 49 107 82 114 110 86 239
0 0 0 0 0 13 20 0 0 2 7 12 6 1 27 36 86 54 359 567 201 31 75 79 42 31 103 18 0 12 28 63 78 103 206 268 146 167 170 111 180 177 321 206
0 0 13 23 18 0 0 2 18 3 4 7 4 14 23 44 148 142 566 399 359 237 169 78 164 60 13 0 0 0 0 0 8 32 33 166 202 200 172 321 468 423 348 487
9 17 17 8 0 15 46 55 27 8 2 5 5 41 81 197 180 91 163 54 80 47 24 40 40 29 63 6 1 0 9 8 17 34 17 13 172 134 204 107 425 563 440 551
1 0 0 16 23 21 35 31 43 9 31 81 67 73 84 300 91 93 64 12 32 46 21 13 17 41 24 6 0 0 6 1 3 11 94 42 105 59 216 360 415 442 524 801
16 8 20 11 21 8 4 15 29 92 105 128 62 48 446 172 28 31 16 19 24 26 13 8 10 21 9 8 0 1 4 25 32 77 185 337 359 615 593 525 699 527 769 675
17 16 0 4 8 4 15 41 64 21 14 10 38 127 103 46 25 35 5 31 12 9 8 2 30 0 0 0 0 2 3 27 29 94 285 327 537 645 784 853 942 669 842 959
10 10 0 1 0 24 23 17 22 24 25 34 22 266 219 47 14 12 7 10 13 8 1 31 32 13 27 133 116 99 38 58 117 158 264 412 410 647 746 719 683 724 835 1041
7 4 1 1 5 23 24 8 27 22 38 37 131 127 54 18 29 18 18 38 13 9 47 25 87 89 288 253 173 94 18 178 180 336 268 382 534 514 577 497 540 832 884 897
2 0 0 0 3 14 17 22 23 9 31 21 15 36 50 48 32 41 50 68 88 35 69 86 101 211 94 81 61 28 184 156 111 157 255 557 648 331 215 201 154 329 751 851
CIN
-0 -0 -0 -0 -0 -0 -0 -0 -0 -0 -0 -0 -0 -0 -0 -0 -0 -0 -0 -0 -0 -0 -0 -0 -0 -1 -0 -0 -0 -0 -0 -0 -0 -0 -1 -0 -0 -0 -1 -0 -0 -0 -0 -0
-0 -0 -0 -0 -0 -0 -0 -0 -0 -0 -0 -0 -0 -0 -0 -0 -0 -0 -0 -0 -0 -0 -0 -0 -0 -0 -5 -0 -0 -0 -0 -0 -0 -0 -0 -0 -1 -0 -0 -0 -0 -0 -1 -1
-0 -0 -0 -0 -0 -0 -0 -0 -0 -0 -0 -0 -0 -0 -0 -0 -0 -0 -0 -0 -0 -0 -0 -0 -0 -0 -0 -0 -0 -259 -0 -0 -0 -0 -1 -8 -6 -5 -1 -1 -0 -1 -0 -1
-0 -0 -0 -0 -0 -0 -0 -0 -0 -0 -0 -0 -0 -0 -0 -0 -0 -1 -0 -0 -0 -0 -0 -0 -0 -0 -0 -4 -51 -0 -0 -0 -0 -0 -0 -0 -0 -2 -2 -0 -0 -0 -2 -5
-0 -0 -0 -0 -0 -0 -0 -0 -0 -0 -0 -0 -0 -0 -0 -0 -0 -0 -0 -0 -0 -0 -0 -0 -0 -9 -8 -4 -4 -0 -0 -0 -0 -0 -0 -0 -0 -0 -2 -1 -1 -1 -2 -4
-0 -0 -0 -0 -0 -0 -0 -0 -0 -0 -0 -0 -0 -0 -0 -0 -0 -0 -0 -0 -0 -0 -4 -0 -0 -0 -0 -0 -0 -14 -1 -0 -12 -11 -0 -0 -0 -0 -1 -4 -2 -0 -0 -8
-0 -0 -0 -0 -0 -0 -0 -0 -0 -0 -0 -0 -0 -0 -0 -0 -0 -0 -0 -0 -0 -0 -0 -0 -0 -0 -0 -0 -0 -0 -4 -2 -2 -24 -1 -3 -0 -3 -3 -5 -4 -3 -2 -1
-0 -0 -0 -0 -0 -0 -0 -0 -0 -0 -0 -0 -0 -0 -0 -0 -0 -0 -0 -0 -0 -0 -0 -0 -0 -0 -0 -0 -0 -0 -0 -1 -0 -0 -0 -0 -0 -1 -1 -5 -11 -2 -1 -2
-0 -0 -0 -0 -0 -0 -0 -0 -0 -0 -0 -0 -0 -0 -0 -0 -0 -0 -0 -0 -0 -0 -0 -0 -0 -0 -0 -0 -0 -0 -1 -19 -0 -1 -0 -0 -1 -3 -22 -17 -0 -15 -12 -9
-0 -0 -0 -0 -0 -0 -0 -0 -0 -0 -0 -0 -0 -0 -0 -0 -0 -0 -0 -0 -0 -0 -0 -0 -0 -0 -0 -0 -0 -0 -0 -0 -0 -0 -0 -0 -1 -3 -15 -7 -16 -8 -4 -4
-0 -0 -0 -0 -0 -0 -0 -0 -0 -0 -0 -0 -0 -0 -0 -0 -0 -0 -0 -0 -0 -0 -0 -0 -0 -0 -0 -0 -2 -0 -0 -0 -6 -0 -0 -0 -50 -17 -14 -14 -5 -1 -5 -6
-0 -0 -0 -0 -0 -0 -0 -0 -0 -0 -0 -0 -0 -0 -0 -0 -0 -0 -0 -0 -0 -4 -0 -5 -0 -2 -0 -0 -0 -1 -0 -1 -8 -0 -0 -18 -26 -33 -50 -43 -1 -6 -1 -1
-0 -0 -0 -0 -0 -0 -0 -0 -0 -0 -0 -0 -0 -0 -0 -0 -0 -0 -0 -0 -0 -1 -1 -0 -0 -8 -4 -1 -0 -1 -1 -1 -14 -17 -5 -2 -10 -10 -7 -32 -40 -203 -31 -32
-0 -0 -0 -0 -0 -0 -0 -0 -0 -0 -0 -0 -0 -0 -0 -0 -0 -0 -0 -0 -0 -0 -0 -0 -0 -0 -0 -0 -0 -4 -0 -4 -4 -1 -1 -7 -18 -9 -12 -45 -143 -207 -354 -26
-0 -0 -0 -0 -0 -0 -0 -0 -0 -0 -0 -0 -0 -0 -0 -0 -0 -0 -0 -0 -0 -0 -0 -0 -0 -0 -0 -1 -0 -1 -0 -1 -0 -0 -2 -6 -4 -9 -13 -2 -37 -189 -116 -1
-0 -0 -0 -0 -0 -0 -0 -0 -0 -0 -0 -0 -0 -0 -0 -0 -0 -0 -0 -0 -0 -0 -0 -0 -0 -1 -0 -0 -0 -0 -2 -0 -9 -0 -1 -4 -0 -0 -20 -1 -0 -1 -0 -0
-0 -0 -0 -0 -0 -0 -0 -0 -1 -0 -0 -0 -0 -0 -1 -0 -1 -7 -8 -1 -1 -1 -0 -0 -0 -1 -1 -0 -0 -1 -5 -0 -0 -1 -0 -0 -1 -1 -1 -2 -27 -20 -1 -0
-0 -0 -0 -0 -0 -0 -0 -3 -0 -0 -0 -0 -0 -0 -0 -0 -1 -1 -0 -5 -3 -3 -4 -1 -0 -0 -2 -0 -0 -1 -9 -13 -7 -8 -2 -0 -0 -0 -13 -24 -13 -14 -16 -6
-0 -0 -0 -0 -0 -0 -2 -0 -0 -0 -0 -0 -0 -4 -2 -2 -1 -7 -2 -9 -0 -3 -0 -0 -5 -2 -3 -17 -2 -26 -2 -0 -1 -10 -4 -0 -6 -2 -7 -1 -1 -42 -7 -1
-0 -0 -0 -0 -1 -0 -0 -4 -0 -0 -0 -0 -0 -0 -0 -3 -4 -1 -1 -0 -0 -0 -0 -25 -4 -1 -49 -0 -0 -0 -0 -0 -17 -11 -13 -0 -1 -1 -1 -0 -1 -4 -8 -26
-7 -0 -0 -4 -0 -0 -0 -0 -0 -1 -1 -0 -0 -4 -2 -4 -0 -1 -1 -0 -0 -0 -0 -0 -0 -1 -14 -45 -28 -0 -1 -0 -3 -6 -3 -5 -1 -1 -0 -0 -0 -0 -3 -4
-0 -0 -0 -0 -0 -3 -0 -0 -0 -1 -0 -3 -4 -2 -8 -10 -1 -0 -0 -1 -0 -0 -1 -1 -0 -2 -32 -47 -0 -0 -5 -7 -19 -8 -6 -2 -9 -14 -1 -0 -0 -0 -0 -0
-0 -0 -0 -3 -0 -4 -0 -0 -0 -0 -0 -2 -0 -0 -4 -8 -6 -0 -0 -0 -0 -0 -0 -0 -4 -10 -35 -34 -1 -0 -3 -6 -2 -0 -2 -0 -2 -0 -0 -0 -0 -0 -0 -0
-0 -0 -0 -0 -0 -0 -0 -0 -0 -0 -8 -14 -0 -2 -3 -8 -0 -0 -4 -1 -2 -0 -0 -0 -15 -0 -0 -0 -0 -0 -12 -11 -7 -0 -0 -0 -0 -0 -1 -0 -0 -2 -0 -0
-0 -0 -0 -0 -0 -0 -0 -2 -4 -0 -2 -0 -0 -9 -6 -0 -0 -0 -1 -0 -0 -0 -6 -11 -1 -22 -7 -1 -1 -0 -4 -1 -0 -2 -0 -0 -0 -0 -0 -1 -0 -0 -0 -0
-0 -0 -0 -0 -0 -0 -1 -1 -2 -0 -0 -0 -7 -4 -0 -2 -0 -7 -1 -0 -2 -1 -6 -17 -6 -1 -0 -0 -0 -0 -2 -1 -0 -0 -1 -1 -1 -3 -0 -0 -5 -0 -0 -0
-0 -0 -0 -0 -0 -0 -1 -0 -0 -17 -1 -0 -0 -0 -0 -0 -0 -0 -0 -0 -9 -26 -22 -9 -8 -0 -0 -0 -0 -0 -0 -0 -0 -0 -0 -0 -0 -5 -5 -2 -21 -11 -7 -2
Wind_Speed
20 22 24 25 26 34 12 8 6 9 8 8 8 12 19 6 9 12 8 13 14 17 19 17 18 14 17 14 13 15 15 12 13 19 12 15 14 15 15 9 14 10 13 10
19 21 23 24 22 19 10 8 10 8 7 9 11 15 18 12 13 15 8 14 12 12 16 15 17 19 4 7 2 3 7 9 13 17 17 17 16 16 18 14 15 12 11 11
18 21 23 25 25 17 8 7 5 7 7 10 16 15 16 17 9 8 12 14 12 15 14 13 15 17 12 5 4 6 3 12 17 14 16 11 17 15 13 13 12 14 13 14
17 19 22 25 28 27 5 6 5 9 7 3 12 13 15 16 15 9 8 8 12 16 16 15 16 15 18 10 10 4 8 16 19 23 21 21 20 17 12 13 14 15 14 15
16 17 20 23 28 36 5 6 7 11 13 16 14 11 14 16 16 15 16 10 12 14 10 13 14 18 15 12 7 12 11 16 18 20 21 23 24 23 20 16 16 16 17 19
15 16 17 20 23 25 6 8 10 9 10 13 11 10 8 13 11 10 14 12 14 13 12 14 15 17 18 15 15 15 12 10 13 19 20 22 24 21 21 20 21 19 19 18
13 15 16 17 18 16 8 9 8 8 11 13 7 12 14 12 13 14 14 14 11 11 15 14 17 18 18 18 19 17 12 11 11 13 15 23 13 16 17 20 18 16 17 14
10 13 15 16 16 16 9 9 6 7 9 14 15 16 13 13 12 12 13 15 14 12 14 12 13 12 17 20 20 19 17 12 12 13 16 23 20 15 14 15 16 14 15 12
9 11 13 15 15 15 10 10 5 8 7 4 17 13 13 11 11 12 13 10 3 8 9 10 15 12 13 10 15 18 18 15 11 12 18 24 13 16 12 13 13 20 12 6
7 9 11 13 15 15 10 8 6 6 9 11 9 10 11 12 12 9 13 9 5 7 8 11 12 13 15 16 17 14 7 8 14 14 17 20 14 17 18 7 11 9 8 10
6 8 10 11 13 15 11 8 4 6 6 15 17 10 11 10 10 9 10 9 7 6 11 11 10 11 13 15 15 14 14 11 12 16 12 20 16 8 4 11 1 3 3 2
4 7 9 10 11 14 14 7 7 6 8 14 20 20 20 18 16 12 10 13 12 6 8 7 6 12 12 13 10 8 11 8 7 8 9 13 12 12 10 18 7 3 3 4
4 6 8 10 11 11 9 8 8 9 9 13 14 11 8 7 8 10 10 9 9 9 10 7 8 12 10 11 10 10 11 9 7 11 11 9 12 10 9 11 10 17 5 12
5 7 8 10 11 11 11 8 8 6 8 7 3 5 4 6 8 7 9 12 13 11 7 9 9 11 9 11 13 11 10 11 11 15 14 13 16 11 5 6 9 11 17 18
6 8 9 11 12 11 10 9 8 4 5 7 11 19 15 4 4 6 9 9 9 7 9 9 10 10 10 10 12 11 12 13 11 13 13 11 10 10 8 11 12 9 9 24
7 9 10 11 12 11 8 4 3 2 4 5 6 7 8 3 3 4 6 8 9 8 9 7 7 14 7 8 13 14 16 15 16 15 15 18 18 17 15 15 16 12 14 15
9 10 10 11 10 8 6 5 4 9 6 3 6 4 2 2 4 1 6 5 6 8 7 8 9 9 10 10 15 18 19 19 18 19 17 18 20 16 16 15 17 18 17 18
10 10 11 11 11 12 7 1 7 5 3 3 6 4 2 5 2 3 2 6 3 3 5 8 7 8 4 8 12 17 10 14 13 12 16 18 12 13 11 12 17 17 17 17
11 12 12 6 6 2 3 4 4 4 3 3 4 5 4 2 5 4 1 0 4 4 8 9 4 6 5 6 10 14 16 14 15 19 18 20 18 15 13 16 13 8 21 16
12 7 5 1 1 11 6 4 4 3 4 4 6 8 7 8 5 3 5 1 3 3 3 5 3 7 3 4 9 10 11 15 17 18 19 20 20 19 20 17 17 10 13 19
5 2 2 3 7 4 3 3 5 4 5 6 7 4 5 3 4 3 2 4 4 3 4 5 4 3 2 7 10 12 13 13 16 17 20 22 21 15 19 18 19 18 13 15
5 5 6 4 3 3 5 5 3 5 3 3 3 3 4 2 3 3 4 3 2 2 3 2 4 3 1 10 15 16 15 14 16 16 19 19 21 19 17 17 15 17 19 15
3 3 3 2 2 3 5 3 2 2 2 0 5 6 2 2 5 3 2 3 3 5 1 3 5 8 5 15 16 17 15 17 15 19 18 18 19 19 16 16 16 17 15 16
3 3 3 6 7 6 3 4 3 2 5 6 7 2 2 2 1 1 3 1 2 2 2 6 7 12 14 15 15 15 17 13 15 16 14 15 15 12 13 13 13 12 13 14
5 4 4 9 10 6 5 3 3 3 7 7 5 1 3 1 0 1 2 3 3 4 5 5 11 12 13 14 11 9 10 11 11 14 13 14 15 13 11 11 9 11 13 13
5 6 9 8 7 6 3 1 4 3 6 6 3 3 1 1 2 3 5 4 3 4 6 10 13 11 12 13 13 13 9 11 10 10 9 9 9 8 7 10 8 10 11 11
4 6 8 8 7 7 5 2 2 3 4 3 3 4 2 2 3 3 1 4 5 6 8 8 10 11 11 12 14 14 13 9 9 10 9 11 10 6 6 9 10 13 9 7
Wind_Direction
341 341 340 341 344 337 337 299 269 127 182 220 230 244 250 262 310 297 240 267 284 292 308 303 290 242 247 260 194 241 207 253 242 260 247 199 248 263 224 215 231 254 289 294
342 341 339 339 347 2 319 291 301 143 221 246 236 253 243 253 278 276 270 269 266 280 277 284 286 295 356 360 193 282 273 237 251 265 269 239 228 227 237 274 282 247 253 253
343 342 340 338 338 349 310 276 285 175 186 254 285 293 295 305 281 229 298 293 308 295 288 280 275 281 278 154 229 60 336 274 275 257 243 272 325 222 285 243 266 273 262 273
343 344 343 340 336 335 280 251 335 9 295 288 339 329 316 303 297 267 216 284 270 267 278 276 268 261 266 218 149 228 257 253 264 277 291 294 292 275 264 241 261 267 295 314
344 346 346 344 341 334 235 343 343 344 299 289 272 270 266 272 275 270 281 269 266 287 282 288 309 327 318 298 210 199 231 253 263 269 273 274 274 277 277 270 269 274 270 275
343 346 348 349 353 342 327 11 334 308 294 291 279 278 318 325 345 328 318 301 309 297 358 351 324 312 304 303 303 293 227 236 245 256 256 258 255 264 277 281 280 280 271 279
340 346 346 349 352 2 321 314 321 296 302 301 308 327 335 312 307 309 307 324 305 293 324 330 300 282 274 275 279 282 283 279 277 277 282 259 271 284 293 291 288 289 289 292
340 344 345 346 345 349 322 301 334 318 306 317 311 339 342 325 296 264 261 266 272 299 289 286 278 256 255 260 263 253 262 269 264 262 260 273 265 268 280 299 316 302 301 271
339 341 344 345 342 348 321 315 334 301 292 58 340 316 293 281 292 296 278 236 60 308 286 275 266 257 272 263 245 233 244 242 245 247 259 263 277 285 321 330 283 297 342 348
333 339 343 345 342 344 326 292 20 292 292 271 354 324 330 319 324 309 305 330 244 256 262 263 263 264 258 255 261 273 237 251 255 244 243 257 276 277 291 171 265 347 14 24
326 336 343 345 343 343 339 314 44 322 300 293 294 318 309 298 266 266 348 304 282 244 261 265 274 267 267 270 270 265 264 240 220 256 266 270 20 339 2 351 317 178 80 47
319 330 335 340 343 339 338 285 0 329 276 290 305 289 274 270 280 298 300 299 307 317 318 356 321 310 298 310 282 270 269 304 334 261 283 325 302 301 343 2 315 330 250 134
309 321 328 333 332 330 327 309 303 289 285 281 245 252 200 223 241 246 271 274 304 312 338 320 299 287 313 293 296 324 297 315 271 310 301 305 335 332 351 316 332 339 20 337
301 314 320 323 321 320 313 294 305 297 304 277 51 105 210 217 244 250 262 270 291 294 301 283 284 281 279 285 309 302 291 299 290 280 271 259 270 271 259 302 17 351 340 300
303 313 314 315 315 312 295 272 273 21 317 323 312 307 269 255 204 281 244 257 269 266 262 262 258 267 292 294 286 278 278 284 281 287 325 317 306 298 264 216 199 189 262 276
304 308 309 311 310 318 286 193 79 20 330 298 291 341 263 249 233 246 245 254 252 250 261 261 272 310 337 277 280 292 303 312 326 310 304 298 300 289 281 277 287 253 250 265
302 304 305 304 304 292 300 348 4 337 327 283 289 282 200 217 227 305 317 294 278 284 280 274 285 292 301 286 280 290 279 294 291 298 298 286 280 283 278 288 292 277 269 261
302 301 297 292 291 275 259 18 205 294 276 270 281 267 277 12 343 278 276 270 259 231 259 264 259 274 267 268 285 309 350 328 308 309 315 312 313 275 262 269 270 268 270 271
300 297 292 266 219 244 115 122 165 218 290 291 269 294 308 307 308 327 18 30 257 249 253 264 223 258 214 13 346 335 339 328 314 308 300 298 287 289 296 273 277 316 296 270
292 269 215 292 109 128 151 174 188 200 205 228 254 254 279 336 355 335 322 277 295 300 56 296 257 266 82 346 301 292 303 306 308 294 282 278 284 294 293 295 288 269 252 295
215 235 287 359 138 229 236 240 226 167 220 213 247 294 286 1 339 295 347 297 335 292 18 331 281 251 158 256 280 278 286 288 285 283 279 274 274 270 273 271 280 284 261 258
336 296 270 255 235 282 248 243 198 215 252 208 254 323 39 34 320 303 33 328 305 312 333 290 267 294 251 289 294 292 293 284 283 278 276 273 275 264 261 255 266 275 274 278
249 244 244 228 252 307 235 244 224 233 350 175 307 341 77 123 28 25 340 272 265 336 294 274 262 309 277 293 297 291 291 291 280 277 274 269 267 263 261 265 264 262 266 263
232 209 276 227 195 233 232 317 329 360 341 319 329 14 53 129 125 347 275 319 316 270 263 245 262 283 293 288 283 289 290 288 287 288 289 291 283 269 264 256 256 255 257 254
240 245 229 220 245 261 152 178 280 326 303 316 299 312 156 162 104 216 305 237 252 234 252 269 305 315 308 317 323 309 286 287 288 295 297 295 294 293 290 287 267 249 250 249
244 240 255 270 283 31 8 33 248 295 290 308 72 279 189 261 245 203 243 279 239 281 332 313 311 330 340 344 340 332 318 312 300 310 305 293 284 292 318 311 300 288 268 252
238 242 229 267 276 290 275 185 261 255 282 315 306 295 305 311 263 258 278 304 339 323 319 326 325 349 342 336 340 347 348 354 348 339 15 22 10 30 16 18 1 330 292 260